Location: Franzen
(48.6167°N, 15.3833°E)
Time: 22:53:24
(UTC+00:00)

Cosmos 2219 - Pass Details

Date: 04 August 2021
Orbit: 834 x 859 km, 71.1° (Epoch: 22 September)

Event Time Altitude Azimuth Distance (km) Brightness Sun altitude
Exits shadow 21:20:32 29° 110° (ESE) 1,538 4.2 -20.4°
Maximum altitude 21:20:52 29° 104° (ESE) 1,533 4.2 -20.4°
Drops below altitude 10° 21:25:42 10° 46° (NE) 2,504 5.9 -20.8°
Sets 21:28:27 0° 36° (NE) 3,446 6.8 -21.0°
